Flag for Saudi Arabia Weather past 2 weeks in Riyadh, Saudi Arabia

Now
82 °F

Sunny.


Feels Like: 80 °F
Forecast: 87 / 111 °F
Wind: 7 mph from Northwest

Location: King Khaled International Airport

Current Time: Jul 6, 2015 at 6:47:05 AM

Latest Report: Jul 6, 2015 at 6:00 AM


Visibility: 4 mi

Pressure: 29.83 "Hg (27.90 "Hg at 590m altitude)

Humidity: 12%

Dew point: 25 °F

Location of RiyadhLocation

Historic Weather in Riyadh — Graph

°F

Riyadh temperature yesterday

Maximum temperature yesterday: 111 °F (at 2:00 PM)
Minimum temperature yesterday: 91 °F (at 3:00 AM)
Average temperature yesterday: 101 °F

Past Weeks' High & Low Weather Summary

 TemperatureHumidityPressure
High113 °F (Jul 4, 3:00 PM)19% (Jun 23, 6:00 AM)29.92 "Hg (Jun 23, 6:00 AM)
Low75 °F (Jun 29, 6:00 AM)4% (Jul 3, 1:00 PM)29.68 "Hg (Jun 21, 3:00 PM)
Average95 °F10%29.78 "Hg
* Reported Jun 21 5:00 AM — Jul 6 5:00 AM, Riyadh, Weather by CustomWeather, © 2015

Note: Actual official high and low records may vary slightly from our data, if they occured in-between our weather recording intervals... More about our weather records

Advertising

Riyadh weather history for previous 24 hours

 ConditionsComfort  
Time TempWeatherWind HumidityBarometerVisibility
5:00 AM
Mon, Jul 6
82 °FClear.3 mph11%29.80 "Hg4 mi
4:00 AM86 °FClear.6 mph10%29.80 "Hg10 mi
3:00 AM90 °FClear.6 mph9%29.80 "Hg10 mi
2:00 AM90 °FClear.3 mph9%29.80 "Hg5 mi
1:00 AM91 °FClear.6 mph9%29.80 "Hg3 mi
12:00 AM95 °FClear.9 mph9%29.83 "Hg3 mi
11:00 PM
Sun, Jul 5
97 °FClear.9 mph7%29.83 "Hg3 mi
10:00 PM99 °FClear.12 mph8%29.83 "Hg3 mi
9:00 PM100 °FClear.15 mph7%29.83 "Hg3 mi
8:00 PM102 °FClear.17 mph6%29.80 "Hg3 mi
7:00 PM106 °FClear.17 mph6%29.77 "Hg3 mi
6:00 PM108 °FSunny.17 mph6%29.77 "Hg3 mi
5:00 PM109 °FClear.17 mph5%29.77 "Hg4 mi
4:00 PM111 °FClear.17 mph5%29.77 "Hg4 mi
3:00 PM111 °FSunny.18 mph5%29.77 "Hg4 mi
2:00 PM111 °FSunny.20 mph5%29.80 "Hg4 mi
1:00 PM109 °FSunny.18 mph6%29.80 "Hg5 mi
12:00 PM108 °FSunny.16 mph7%29.83 "Hg5 mi
11:00 AM106 °FSunny.17 mph7%29.83 "Hg5 mi
10:00 AM104 °FSunny.14 mph8%29.86 "Hg5 mi
9:00 AM100 °FSunny.12 mph9%29.86 "Hg10 mi
8:00 AM99 °FSunny.15 mph8%29.83 "Hg10 mi
7:00 AM97 °FSunny.10 mph9%29.83 "Hg10 mi
6:00 AM93 °FScattered clouds.12 mph11%29.80 "HgN/A
Weather by CustomWeather, © 2015

See weather overviewHow to use our weather pages